Location: A�n Tadlesse
(35.0351°N, 0.5353°E)
Time: 01:40:06
(UTC+00:00)

COSMOS 2406 - Pass Details

Date: 21 October 2019
Orbit: 842 x 865 km, 71.0° (Epoch: 12 November)

Event Time Altitude Azimuth Distance (km) Brightness Sun altitude
Rises 18:16:14 0° 335° (NNW) 3,447 6.7 -13.0°
Reaches altitude 10° 18:18:43 10° 332° (NNW) 2,504 6.0 -13.5°
Maximum altitude 18:24:24 64° 252° (WSW) 950 3.7 -14.7°
Drops below altitude 10° 18:30:01 10° 172° (S) 2,475 5.6 -15.8°
Sets 18:32:28 0° 169° (S) 3,404 6.3 -16.3°
